| time (UTC) | temp C | wind direction | speed KPH | gust KPH | rain 1hr cm | rain 24hr cm | rain mn cm | humidity % | barometer mb |
| 20260504141304 | 13 | 257 | 35.4 | 56.3 | 0.00 | 0.00 | 0.00 | 50 | 1018.0 |
| 20260504140805 | 13 | 269 | 32.2 | 40.2 | 0.00 | 0.00 | 0.00 | 49 | 1017.8 |
| 20260504140304 | 13 | 243 | 20.9 | 35.4 | 0.00 | 0.00 | 0.00 | 47 | 1018.0 |
| 20260504130804 | 11 | 270 | 6.4 | 16.1 | 0.00 | 0.00 | 0.00 | 53 | 1018.4 |
| 20260504130304 | 11 | 311 | 3.2 | 4.8 | 0.00 | 0.00 | 0.00 | 59 | 1018.7 |
| 20260504120304 | 8 | 58 | 3.2 | 3.2 | 0.00 | 0.00 | 0.00 | 60 | 1018.7 |
| 20260504110303 | 8 | 256 | 0.0 | 8.0 | 0.00 | 0.00 | 0.00 | 60 | 1018.9 |
| 20260504100304 | 7 | 225 | 0.0 | 3.2 | 0.00 | 0.00 | 0.00 | 62 | 1019.2 |
| 20260504081808 | 8 | 278 | 9.7 | 14.5 | 0.00 | 0.00 | 0.00 | 56 | 1018.8 |
| 20260504081307 | 8 | 270 | 4.8 | 11.3 | 0.00 | 0.00 | 0.00 | 56 | 1018.7 |
| 20260504080807 | 7 | 260 | 6.4 | 9.7 | 0.00 | 0.00 | 0.00 | 59 | 1019.1 |
| 20260504080307 | 7 | 263 | 8.0 | 11.3 | 0.00 | 0.00 | 0.00 | 58 | 1019.0 |
| 20260504050306 | 6 | 250 | 0.0 | 1.6 | 0.00 | 0.00 | 0.00 | 56 | 1020.5 |
| 20260504045807 | 6 | 288 | 0.0 | 1.6 | 0.00 | 0.00 | 0.00 | 55 | 1020.5 |
| 20260504045307 | 6 | 247 | 0.0 | 0.0 | 0.00 | 0.00 | 0.00 | 52 | 1020.5 |
| 20260504044807 | 6 | 247 | 0.0 | 0.0 | 0.00 | 0.00 | 0.00 | 53 | 1020.1 |
| 20260504044307 | 7 | 247 | 0.0 | 1.6 | 0.00 | 0.00 | 0.00 | 53 | 1020.2 |
| 20260504043807 | 7 | 247 | 1.6 | 3.2 | 0.00 | 0.00 | 0.00 | 52 | 1020.1 |
| 20260504043307 | 6 | 251 | 1.6 | 3.2 | 0.00 | 0.00 | 0.00 | 53 | 1020.1 |
| 20260504042807 | 6 | 252 | 3.2 | 3.2 | 0.00 | 0.00 | 0.00 | 54 | 1020.2 |
| 20260504042307 | 6 | 238 | 1.6 | 3.2 | 0.00 | 0.00 | 0.00 | 53 | 1020.3 |
| 20260504041807 | 6 | 235 | 1.6 | 3.2 | 0.00 | 0.00 | 0.00 | 53 | 1020.0 |
| 20260504041307 | 7 | 170 | 0.0 | 0.0 | 0.00 | 0.00 | 0.00 | 48 | 1019.8 |
| 20260504040806 | 7 | 170 | 0.0 | 0.0 | 0.00 | 0.00 | 0.00 | 46 | 1019.6 |
| 20260504040307 | 8 | 170 | 0.0 | 1.6 | 0.00 | 0.00 | 0.00 | 44 | 1019.6 |
| 20260504035807 | 8 | 170 | 1.6 | 1.6 | 0.00 | 0.00 | 0.00 | 44 | 1019.5 |
| 20260504034807 | 7 | 227 | 1.6 | 3.2 | 0.00 | 0.00 | 0.00 | 47 | 1019.9 |
| 20260504034307 | 7 | 179 | 0.0 | 0.0 | 0.00 | 0.00 | 0.00 | 46 | 1019.5 |
| 20260504033807 | 7 | 179 | 0.0 | 3.2 | 0.00 | 0.00 | 0.00 | 46 | 1019.6 |
| 20260504033307 | 7 | 213 | 3.2 | 3.2 | 0.00 | 0.00 | 0.00 | 49 | 1020.0 |
| 20260504032806 | 6 | 216 | 1.6 | 4.8 | 0.00 | 0.00 | 0.00 | 50 | 1020.4 |
| 20260504032306 | 6 | 213 | 3.2 | 4.8 | 0.00 | 0.00 | 0.00 | 55 | 1020.7 |
| 20260504030807 | 7 | 139 | 0.0 | 1.6 | 0.00 | 0.00 | 0.00 | 48 | 1019.9 |
| 20260504030306 | 7 | 139 | 1.6 | 1.6 | 0.00 | 0.00 | 0.00 | 47 | 1020.0 |
| 20260504025806 | 7 | 139 | 0.0 | 0.0 | 0.00 | 0.00 | 0.00 | 49 | 1019.8 |
| 20260504025306 | 7 | 139 | 0.0 | 0.0 | 0.00 | 0.00 | 0.00 | 48 | 1019.7 |
| 20260504024806 | 7 | 139 | 0.0 | 0.0 | 0.00 | 0.00 | 0.00 | 49 | 1020.0 |
| 20260504024306 | 7 | 139 | 0.0 | 1.6 | 0.00 | 0.00 | 0.00 | 49 | 1019.8 |
| 20260504023807 | 7 | 139 | 1.6 | 1.6 | 0.00 | 0.00 | 0.00 | 48 | 1019.8 |
| 20260504022807 | 7 | 139 | 1.6 | 1.6 | 0.00 | 0.00 | 0.00 | 49 | 1020.1 |
| 20260504022306 | 7 | 244 | 0.0 | 1.6 | 0.00 | 0.00 | 0.00 | 47 | 1019.6 |
| 20260504020806 | 7 | 241 | 3.2 | 4.8 | 0.00 | 0.00 | 0.00 | 46 | 1019.7 |
| 20260504020306 | 8 | 264 | 3.2 | 8.0 | 0.00 | 0.00 | 0.00 | 47 | 1019.5 |
| 20260504015806 | 8 | 262 | 4.8 | 8.0 | 0.00 | 0.00 | 0.00 | 45 | 1019.1 |
| 20260504015307 | 8 | 259 | 3.2 | 4.8 | 0.00 | 0.00 | 0.00 | 44 | 1018.9 |
| 20260504014807 | 8 | 251 | 3.2 | 4.8 | 0.00 | 0.00 | 0.00 | 43 | 1018.8 |
| 20260504014307 | 8 | 242 | 4.8 | 9.7 | 0.00 | 0.00 | 0.00 | 44 | 1019.0 |
| 20260504013807 | 8 | 254 | 6.4 | 9.7 | 0.00 | 0.00 | 0.00 | 45 | 1019.2 |
| 20260504013306 | 8 | 271 | 8.0 | 9.7 | 0.00 | 0.00 | 0.00 | 43 | 1018.9 |
| 20260504012806 | 9 | 253 | 1.6 | 4.8 | 0.00 | 0.00 | 0.00 | 43 | 1018.8 |
| 20260504012306 | 9 | 252 | 3.2 | 4.8 | 0.00 | 0.00 | 0.00 | 41 | 1018.6 |
| 20260504011806 | 9 | 245 | 3.2 | 8.0 | 0.00 | 0.00 | 0.00 | 40 | 1018.6 |
| 20260504011307 | 9 | 242 | 3.2 | 4.8 | 0.00 | 0.00 | 0.00 | 41 | 1018.4 |
| 20260504010306 | 9 | 244 | 3.2 | 8.0 | 0.00 | 0.00 | 0.00 | 41 | 1018.3 |
| 20260504005307 | 10 | 260 | 4.8 | 8.0 | 0.00 | 0.00 | 0.00 | 39 | 1018.0 |
| 20260504004807 | 10 | 236 | 4.8 | 12.9 | 0.00 | 0.00 | 0.00 | 40 | 1018.1 |
| 20260504004306 | 9 | 248 | 8.0 | 11.3 | 0.00 | 0.00 | 0.00 | 40 | 1017.9 |
| 20260504003806 | 9 | 275 | 9.7 | 11.3 | 0.00 | 0.00 | 0.00 | 40 | 1018.1 |
| 20260504003307 | 10 | 261 | 4.8 | 8.0 | 0.00 | 0.00 | 0.00 | 40 | 1017.9 |
| 20260504002806 | 10 | 264 | 4.8 | 8.0 | 0.00 | 0.00 | 0.00 | 39 | 1017.4 |
| 20260504002306 | 10 | 252 | 4.8 | 8.0 | 0.00 | 0.00 | 0.00 | 38 | 1017.4 |
| 20260504001806 | 10 | 269 | 4.8 | 8.0 | 0.00 | 0.00 | 0.00 | 37 | 1017.6 |
| 20260504001306 | 10 | 267 | 8.0 | 8.0 | 0.00 | 0.00 | 0.00 | 38 | 1017.5 |
| 20260504000806 | 11 | 269 | 8.0 | 8.0 | 0.00 | 0.00 | 0.00 | 38 | 1017.4 |
| 20260504000306 | 11 | 264 | 4.8 | 9.7 | 0.00 | 0.00 | 0.00 | 38 | 1017.2 |
| 20260503235806 | 11 | 260 | 4.8 | 11.3 | 0.00 | 0.00 | 0.00 | 38 | 1017.3 |
| 20260503235306 | 11 | 285 | 6.4 | 11.3 | 0.00 | 0.00 | 0.00 | 36 | 1017.0 |
| 20260503234806 | 12 | 284 | 8.0 | 11.3 | 0.00 | 0.00 | 0.00 | 34 | 1017.1 |
| 20260503234306 | 12 | 282 | 8.0 | 11.3 | 0.00 | 0.00 | 0.00 | 36 | 1016.9 |
| 20260503233806 | 12 | 298 | 9.7 | 14.5 | 0.00 | 0.00 | 0.00 | 33 | 1016.5 |
| 20260503233306 | 12 | 267 | 12.9 | 14.5 | 0.00 | 0.00 | 0.00 | 33 | 1016.7 |
| 20260503232806 | 13 | 297 | 9.7 | 11.3 | 0.00 | 0.00 | 0.00 | 32 | 1016.4 |
| 20260503231806 | 13 | 272 | 11.3 | 19.3 | 0.00 | 0.00 | 0.00 | 32 | 1016.0 |
| 20260503231306 | 13 | 269 | 9.7 | 16.1 | 0.00 | 0.00 | 0.00 | 33 | 1016.1 |
| 20260503230805 | 13 | 304 | 9.7 | 24.1 | 0.00 | 0.00 | 0.00 | 31 | 1016.1 |
| 20260503230306 | 13 | 280 | 16.1 | 24.1 | 0.00 | 0.00 | 0.00 | 29 | 1015.9 |
| 20260503225806 | 14 | 273 | 17.7 | 24.1 | 0.00 | 0.00 | 0.00 | 28 | 1015.6 |
| 20260503225306 | 13 | 271 | 11.3 | 12.9 | 0.00 | 0.00 | 0.00 | 31 | 1015.9 |
| 20260503224806 | 14 | 300 | 8.0 | 12.9 | 0.00 | 0.00 | 0.00 | 31 | 1015.9 |
| 20260503224306 | 14 | 278 | 8.0 | 14.5 | 0.00 | 0.00 | 0.00 | 32 | 1015.7 |
| 20260503223306 | 13 | 309 | 8.0 | 16.1 | 0.00 | 0.00 | 0.00 | 30 | 1015.8 |
| 20260503222806 | 14 | 298 | 9.7 | 16.1 | 0.00 | 0.00 | 0.00 | 31 | 1015.8 |
| 20260503222306 | 15 | 295 | 9.7 | 12.9 | 0.00 | 0.00 | 0.00 | 29 | 1015.6 |
| 20260503221805 | 15 | 278 | 9.7 | 20.9 | 0.00 | 0.00 | 0.00 | 30 | 1015.6 |
| 20260503221305 | 14 | 292 | 4.8 | 19.3 | 0.00 | 0.00 | 0.00 | 30 | 1016.0 |
| 20260503220305 | 15 | 305 | 9.7 | 20.9 | 0.00 | 0.00 | 0.00 | 28 | 1015.8 |
| 20260503215806 | 14 | 273 | 12.9 | 27.4 | 0.00 | 0.00 | 0.00 | 28 | 1015.9 |
| 20260503215305 | 15 | 272 | 16.1 | 27.4 | 0.00 | 0.00 | 0.00 | 27 | 1015.7 |
| 20260503214805 | 14 | 246 | 9.7 | 20.9 | 0.00 | 0.00 | 0.00 | 26 | 1015.9 |
| 20260503214306 | 15 | 290 | 9.7 | 14.5 | 0.00 | 0.00 | 0.00 | 27 | 1015.9 |
| 20260503213806 | 14 | 310 | 8.0 | 19.3 | 0.00 | 0.00 | 0.00 | 28 | 1016.1 |
| 20260503213305 | 15 | 298 | 8.0 | 19.3 | 0.00 | 0.00 | 0.00 | 29 | 1015.8 |
| 20260503212805 | 15 | 289 | 11.3 | 16.1 | 0.00 | 0.00 | 0.00 | 28 | 1015.7 |
| 20260503212306 | 15 | 263 | 11.3 | 16.1 | 0.00 | 0.00 | 0.00 | 27 | 1016.0 |
| 20260503211806 | 15 | 288 | 11.3 | 19.3 | 0.00 | 0.00 | 0.00 | 28 | 1015.8 |
| 20260503211306 | 14 | 305 | 11.3 | 19.3 | 0.00 | 0.00 | 0.00 | 28 | 1016.1 |
| 20260503210806 | 15 | 298 | 11.3 | 19.3 | 0.00 | 0.00 | 0.00 | 26 | 1016.2 |
| 20260503210306 | 15 | 324 | 4.8 | 8.0 | 0.00 | 0.00 | 0.00 | 28 | 1019.0 |
| 20260503205305 | 15 | 324 | 4.8 | 27.4 | 0.00 | 0.00 | 0.00 | 28 | 1016.0 |
| 20260503204305 | 13 | 21 | 8.0 | 27.4 | 0.00 | 0.00 | 0.00 | 31 | 1016.6 |
| 20260503203805 | 14 | 332 | 4.8 | 9.7 | 0.00 | 0.00 | 0.00 | 31 | 1018.8 |
| 20260503202806 | 14 | 320 | 4.8 | 9.7 | 0.00 | 0.00 | 0.00 | 31 | 1019.3 |
| 20260503201805 | 14 | 320 | 4.8 | 9.7 | 0.00 | 0.00 | 0.00 | 31 | 1019.2 |
| 20260503200306 | 14 | 320 | 4.8 | 9.7 | 0.00 | 0.00 | 0.00 | 31 | 1019.7 |
| 20260503195805 | 14 | 320 | 4.8 | 9.7 | 0.00 | 0.00 | 0.00 | 31 | 1019.7 |
| 20260503194806 | 14 | 320 | 4.8 | 9.7 | 0.00 | 0.00 | 0.00 | 31 | 1019.5 |
| 20260503194305 | 14 | 320 | 4.8 | 9.7 | 0.00 | 0.00 | 0.00 | 31 | 1017.0 |
| 20260503193805 | 14 | 320 | 4.8 | 14.5 | 0.00 | 0.00 | 0.00 | 31 | 1017.0 |
| 20260503192806 | 12 | 250 | 12.9 | 14.5 | 0.00 | 0.00 | 0.00 | 28 | 1020.0 |
| 20260503192305 | 12 | 250 | 12.9 | 14.5 | 0.00 | 0.00 | 0.00 | 28 | 1020.0 |
| 20260503191806 | 12 | 250 | 12.9 | 14.5 | 0.00 | 0.00 | 0.00 | 28 | 1019.9 |
| 20260503191305 | 12 | 250 | 12.9 | 14.5 | 0.00 | 0.00 | 0.00 | 28 | 1019.9 |
| 20260503190805 | 12 | 250 | 12.9 | 14.5 | 0.00 | 0.00 | 0.00 | 28 | 1019.9 |
| 20260503190306 | 12 | 250 | 12.9 | 14.5 | 0.00 | 0.00 | 0.00 | 28 | 1020.2 |
| 20260503185805 | 12 | 250 | 12.9 | 14.5 | 0.00 | 0.00 | 0.00 | 28 | 1020.2 |
| 20260503185305 | 12 | 250 | 12.9 | 14.5 | 0.00 | 0.00 | 0.00 | 28 | 1020.0 |
| 20260503184805 | 12 | 250 | 12.9 | 14.5 | 0.00 | 0.00 | 0.00 | 28 | 1020.2 |
| 20260503183805 | 12 | 250 | 12.9 | 14.5 | 0.00 | 0.00 | 0.00 | 28 | 1018.2 |
| 20260503183304 | 13 | 257 | 9.7 | 14.5 | 0.00 | 0.00 | 0.00 | 31 | 1018.1 |
| 20260503182806 | 13 | 259 | 8.0 | 11.3 | 0.00 | 0.00 | 0.00 | 32 | 1018.6 |
| 20260503182306 | 12 | 347 | 8.0 | 9.7 | 0.00 | 0.00 | 0.00 | 31 | 1018.4 |
| 20260503181805 | 12 | 77 | 1.6 | 3.2 | 0.00 | 0.00 | 0.00 | 32 | 1020.4 |
| 20260503181305 | 12 | 88 | 1.6 | 1.6 | 0.00 | 0.00 | 0.00 | 32 | 1020.7 |
| 20260503180805 | 12 | 88 | 1.6 | 1.6 | 0.00 | 0.00 | 0.00 | 32 | 1018.8 |
| 20260503175805 | 11 | 333 | 8.0 | 11.3 | 0.00 | 0.00 | 0.00 | 34 | 1019.1 |
| 20260503175305 | 11 | 333 | 8.0 | 11.3 | 0.00 | 0.00 | 0.00 | 34 | 1019.3 |
| 20260503174805 | 12 | 273 | 9.7 | 11.3 | 0.00 | 0.00 | 0.00 | 31 | 1019.3 |
| 20260503174305 | 11 | 302 | 6.4 | 11.3 | 0.00 | 0.00 | 0.00 | 34 | 1019.1 |
| 20260503173805 | 11 | 283 | 8.0 | 22.5 | 0.00 | 0.00 | 0.00 | 33 | 1019.4 |
| 20260503173305 | 12 | 303 | 4.8 | 16.1 | 0.00 | 0.00 | 0.00 | 34 | 1019.1 |
| 20260503171805 | 12 | 9 | 3.2 | 11.3 | 0.00 | 0.00 | 0.00 | 31 | 1019.4 |
| 20260503171305 | 11 | 1 | 6.4 | 19.3 | 0.00 | 0.00 | 0.00 | 33 | 1019.7 |
| 20260503170805 | 11 | 306 | 9.7 | 14.5 | 0.00 | 0.00 | 0.00 | 33 | 1019.8 |
| 20260503170305 | 11 | 339 | 1.6 | 11.3 | 0.00 | 0.00 | 0.00 | 34 | 1020.0 |
| 20260503150804 | 7 | 280 | 9.7 | 19.3 | 0.00 | 0.00 | 0.00 | 42 | 1021.8 |
| 20260503150304 | 7 | 283 | 11.3 | 14.5 | 0.00 | 0.00 | 0.00 | 44 | 1022.0 |